Weather in Shatki

Russia / Nizhny Novgorod Oblast'     55°11′16″N   44°07′40″E
temp.,
°C
wind,
m/s
gust,
m/s
humid.,
%
clouds,
%
prec.,
mm/h
press.,
hPa
HPBL,
m
20 april, tue
tue2000:00+2e5135052 0.0 1026524
03:00+2e5135521 0.0 1026428
06:00+1e5146158 0.0 1026553
09:00+6ese71252100 0.0 1026970
12:00+9ese8114588 0.0 10241315
15:00+9ese61251100 0.0 10231378
18:00+8se71353100 0.0 10211209
21:00+7ese81556100 0.0 10201137
21 april, wed
wed2100:00+5ese81870100 1.1 10161110
03:00+2ese92193100 9.1 10141022
06:00+4se91987100 0.8 1012962
09:00+5se91785100 1.0 10121008
12:00+6sse91784100 0.4 1011906
15:00+7sse81687100 0.6 1011931
18:00+6sse71691100 0.4 1011881
21:00+5sw51193100 0.9 1014870
22 april, thu
thu2200:00+5ssw4989100 0.1 1016856
03:00+5s3790100 0.1 1017300
06:00+5sse3892100 0.0 1018298
09:00+9s478382 0.3 1018739
12:00+9s6108161 1.3 1019872
15:00+10wsw487362 2.0 10191101
18:00+9wsw37696 0.1 1020562
21:00+5sw24882 0.1 102269
23 april, fri
fri2300:00+4s22895 0.0 102225
03:00+4sse24887 0.0 102275
06:00+5sse398643 0.0 1023180
09:00+9sse41073100 0.0 1023440
12:00+14s465545 0.0 10221042
15:00+15s3654100 0.1 1021967
18:00+12sse386892 0.6 1021231
21:00+10sse2471100 0.6 102083
24 april, sat
sat2400:00+8sse227589 0.0 101916
03:00+8se227798 0.0 101822
06:00+8se378399 0.0 1017170
09:00+13se46636 0.3 1015582
12:00+15se565140 1.6 10131848
15:00+14se4756100 1.8 1011682
18:00+12se4960100 0.0 1009375
21:00+10se51273100 0.1 1007630